Weather History for Ozark, AL

Change the Weather History Date:

Wednesday, April 3, 2013

  Actual Average Record
Temperature  
Mean Temperature 56 °F -  
Max Temperature 59 °F 72 °F 86 °F (2006)
Min Temperature 54 °F 50 °F 37 °F (2005)
Degree Days  
Heating Degree Days 8    
Growing Degree Days 6 (Base 50)    
Moisture  
Dew Point 51 °F    
Average Humidity 81    
Maximum Humidity 100    
Minimum Humidity 48    
Precipitation  
Precipitation 0.24 in - - ()
Sea Level Pressure  
Sea Level Pressure 30.01 in    
Wind  
Wind Speed 9 mph (NE)    
Max Wind Speed 17 mph    
Max Gust Speed 26 mph    
Visibility 9 miles    
Events Rain    
Averages and records for this station are not official NWS values.
T = Trace of Precipitation, MM = Missing Value Source: NWS Daily Summary

Daily Weather History Graph

Daily Weather History Graph

Search for Another Location

Airport:

Trip Planner

Search our weather history database for the weather conditions in past years. The results will help you decide how hot, cold, wet, or windy it might be!

Date:

Astronomy

Apr. 03, 2013 Rise Set
Actual Time 6:28 AM CDT 7:03 PM CDT
Civil Twilight 6:04 AM CDT 7:28 PM CDT
Nautical Twilight 5:35 AM CDT 7:56 PM CDT
Astronomical Twilight 5:06 AM CDT 8:26 PM CDT
Moon 1:44 AM CDT (4/3) 12:38 PM CDT (4/3)
Length of Visible Light 13h 23m
Length of Day
12h 34m
Last Quarter, 44% of the Moon is Illuminated
Apr 3
Last Quarter
Apr 10
New
Apr 18
First Quarter
Apr 25
Full
May 2
Last Quarter

Hourly Weather History & Observations

Time (CDT) Temp. Dew Point Humidity Pressure Visibility Wind Dir Wind Speed Gust Speed Precip Events Conditions
12:58 AM 57.2 °F 48.2 °F 72% 30.06 in 10.0 mi NNW 3.5 mph - N/A   Clear
1:58 AM 55.2 °F 49.1 °F 80% 30.04 in 10.0 mi NNE 4.6 mph - N/A   Mostly Cloudy
2:58 AM 56.1 °F 48.9 °F 77% 30.01 in 10.0 mi NNE 6.9 mph - N/A   Mostly Cloudy
3:58 AM 56.7 °F 46.6 °F 69% 30.01 in 10.0 mi NE 12.7 mph - N/A   Mostly Cloudy
4:58 AM 55.8 °F 45.9 °F 69% 30.04 in 10.0 mi NE 10.4 mph - N/A   Scattered Clouds
5:58 AM 56.3 °F 43.0 °F 61% 30.04 in 10.0 mi NNE 10.4 mph - N/A   Mostly Cloudy
6:58 AM 56.3 °F 41.2 °F 57% 30.04 in 10.0 mi NE 10.4 mph - N/A   Overcast
7:58 AM 57.4 °F 39.4 °F 51% 30.06 in 10.0 mi NE 10.4 mph - N/A   Mostly Cloudy
8:58 AM 57.7 °F 39.7 °F 51% 30.09 in 10.0 mi ENE 6.9 mph - N/A   Mostly Cloudy
9:58 AM 58.5 °F 39.2 °F 49% 30.07 in 10.0 mi NE 10.4 mph - N/A   Mostly Cloudy
10:58 AM 59.4 °F 39.7 °F 48% 30.11 in 10.0 mi North 2.3 mph - N/A   Clear
11:09 AM 59.0 °F 39.2 °F 48% 30.09 in 10.0 mi NNE 4.6 mph - N/A   Light Drizzle
11:58 AM 58.3 °F 43.7 °F 58% 30.12 in 10.0 mi NNE 4.6 mph - 0.00 in Rain Light Rain
12:49 PM 57.2 °F 48.2 °F 72% 30.12 in 5.0 mi NE 2.3 mph - N/A Rain Rain
12:58 PM 55.8 °F 49.1 °F 78% 30.13 in 4.0 mi NE 4.6 mph - 0.07 in Rain Rain
1:58 PM 54.7 °F 51.1 °F 88% 30.10 in 9.0 mi NE 6.9 mph - 0.08 in Rain Light Rain
2:58 PM 54.5 °F 52.0 °F 91% 30.07 in 9.0 mi NNE 8.1 mph - 0.06 in Rain Light Rain
3:58 PM 55.4 °F 54.0 °F 95% 30.00 in 8.0 mi East 12.7 mph - 0.02 in   Light Drizzle
4:10 PM 55.4 °F 53.6 °F 94% 29.91 in 10.0 mi East 17.3 mph 26.5 mph N/A   Partly Cloudy
4:18 PM 55.4 °F 53.6 °F 94% 29.90 in 10.0 mi East 15.0 mph 26.5 mph N/A   Scattered Clouds
4:58 PM 57.2 °F 54.9 °F 92% 29.94 in 10.0 mi East 10.4 mph - 0.00 in   Clear
5:58 PM 56.8 °F 54.5 °F 92% 29.93 in 10.0 mi NE 16.1 mph - N/A   Clear
6:18 PM 57.2 °F 55.4 °F 94% 29.92 in 10.0 mi NE 13.8 mph - N/A   Mostly Cloudy
6:58 PM 57.4 °F 55.0 °F 92% 29.95 in 10.0 mi NE 15.0 mph - N/A   Overcast
7:23 PM 57.2 °F 53.6 °F 88% 29.95 in 10.0 mi NE 17.3 mph 23.0 mph N/A   Overcast
7:43 PM 57.2 °F 53.6 °F 88% 29.95 in 10.0 mi NE 16.1 mph - N/A   Overcast
7:53 PM 57.2 °F 53.6 °F 88% 29.95 in 10.0 mi NE 13.8 mph 23.0 mph N/A   Overcast
7:58 PM 56.8 °F 54.0 °F 90% 29.97 in 10.0 mi NE 12.7 mph 23.0 mph N/A   Overcast
8:58 PM 57.4 °F 54.9 °F 91% 30.00 in 10.0 mi ENE 17.3 mph 24.2 mph N/A   Overcast
9:28 PM 57.2 °F 55.4 °F 94% 30.00 in 10.0 mi ENE 12.7 mph 19.6 mph N/A   Overcast
9:58 PM 57.9 °F 54.9 °F 90% 30.02 in 10.0 mi ENE 10.4 mph - 0.01 in   Overcast
10:08 PM 57.2 °F 55.4 °F 94% 30.01 in 10.0 mi ENE 11.5 mph - N/A   Overcast
10:38 PM 57.2 °F 55.4 °F 94% 30.00 in 10.0 mi ENE 8.1 mph - N/A   Overcast
10:55 PM 57.2 °F 55.4 °F 94% 30.00 in 10.0 mi ENE 6.9 mph - N/A   Overcast
11:24 PM 57.2 °F 55.4 °F 94% 29.99 in 8.0 mi NE 10.4 mph - N/A   Light Drizzle
11:46 PM 57.2 °F 55.4 °F 94% 29.99 in 7.0 mi NE 8.1 mph - N/A   Overcast
11:56 PM 57.2 °F 55.4 °F 94% 29.99 in 6.0 mi NE 6.9 mph - N/A   Overcast
11:58 PM 57.7 °F 56.3 °F 95% 30.00 in 6.0 mi NE 9.2 mph - 0.00 in   Overcast
11:59 PM 57.2 °F 57.2 °F 100% 29.99 in 6.0 mi NE 9.2 mph - N/A Rain Light Rain